Aeroporto :
LOGIN :

Iscrizione | Disclaimer

   EN    FR    IT 

 










Sommario :    VFR   VFR Marginale   IFR   IFR Intensivo   IFR Molto Intensivo
Visibilità : 
Base nubi : 
>= 8 km
>= 3000ft
5 / 8 km
1000 / 3000 ft
1500m / 5 km
500 / 1000 ft
800 / 1500m
200 / 500 ft
< 800m
< 200 ft
Simboli :   Temporali  Nebbia  Neve Forte  Precipitazioni Forti  Vento > 20 kt
SIGMETs :   Varie  Temporali  Ghiacco  Turbolenza  Onda orograficha  Ceneri Vulcaniche







- Altitudine del aeroporto : 120 ft
- Codice IATA : MME
- Carte del aeroporto


EGNV - Durham Tees valley

ULTIMO METAR :
  • 201820Z 19006KT CAVOK 18/06 Q1028

METARs OBSOLETI :
  • 201720Z 18008KT CAVOK 20/05 Q1028
  • 201650Z 18008KT CAVOK 21/05 Q1028
  • 201620Z 18008KT CAVOK 21/03 Q1029
  • 201550Z 19008KT CAVOK 22/04 Q1029
  • 201520Z 18006KT 160V220 CAVOK 22/03 Q1029

TAF TAF EGNV
Valido dal 20 a 18 ore il 21 a 03 ore UTC


201658Z 2018/2103 18003KT 9999 FEW030
BECMG 2021/2023 6000
PROB30
TEMPO 2023/2103 0300 FG VV///
ATIS : +44 9012 018 111
Nessun NOTAM noto per questo aeroporto.



MetMap, La meteo Aeronautica in un colpo d'occhio ! - Copyright ORBIFLY Dicembre 2007 - Disclaimer

ORBIFLY MET'MAP TEAM :

Programmazione e sviluppo : Alexandra Zaïnal
Concezione e sviluppo : Baudouin d'Aumeries
Co-Programmazione e sviluppo : Marc-Olivier Méhu
Supporto tecnico e logistico : Manuel Goepfert
Aiuto per la traduzione : Arnaldo La Scala

Contatto : metmap@orbifly.com




FONTI E CREDITI :

   NOAA